Location: Bakov nad Jizerou
(50.4784°N, 14.9394°E)
Time: 15:30:53
(UTC+00:00)

Spot 4 - Pass Details

Date: 16 June 2021
Orbit: 705 x 722 km, 98.3° (Epoch: 03 August)

Event Time Altitude Azimuth Distance (km) Brightness Sun altitude
Exits shadow 21:52:24 23° 162° (SSE) 1,478 4.9 -14.6°
Maximum altitude 21:55:24 87° 73° (ENE) 717 3.8 -14.7°
Drops below altitude 10° 22:00:13 10° 346° (NNW) 2,191 7.8 -14.9°
Sets 22:02:28 0° 346° (NNW) 3,113 9.1 -15.0°
